This is the latest recevied weather packets stored in our database for station/object WL7BUN-9. If no packets are shown the sender has not sent any weather packets the latest 10 day(s).
| Time | Temp. | Humidity | Pressure | Rain* | Wind** | Luminosity | Snow |
|---|---|---|---|---|---|---|---|
| 1787559418 | 8.89° C | 90% | 992.6 hPa | 0 mm | - | 0 W/m² | - |
| 1787558818 | 8.89° C | 92% | 992.7 hPa | 0 mm | - | 0 W/m² | - |
| 1787558218 | 8.89° C | 92% | 992.8 hPa | 0 mm | - | 0 W/m² | - |
| 1787557618 | 8.89° C | 92% | 992.7 hPa | 0 mm | - | 0 W/m² | - |
| 1787557018 | 8.89° C | 93% | 992.9 hPa | 0 mm | - | 0 W/m² | - |
| 1787556418 | 8.89° C | 91% | 992.7 hPa | 0 mm | - | 0 W/m² | - |
| 1787555817 | 9.44° C | 91% | 992.6 hPa | 0 mm | - | 0 W/m² | - |
| 1787555218 | 8.89° C | 93% | 992.6 hPa | 0 mm | - | 0 W/m² | - |
| 1787554618 | 8.89° C | 93% | 992.6 hPa | 0 mm | - | 0 W/m² | - |
| 1787554019 | 8.89° C | 93% | 992.5 hPa | 0 mm | - | 0 W/m² | - |
| 1787553418 | 9.44° C | 93% | 992.6 hPa | 0 mm | - | 0 W/m² | - |
| 1787552818 | 9.44° C | 93% | 992.6 hPa | 0 mm | - | 0 W/m² | - |
| 1787552218 | 9.44° C | 92% | 992.6 hPa | 0 mm | - | 0 W/m² | - |
| 1787551618 | 10° C | 93% | 992.6 hPa | 0 mm | - | 10 W/m² | - |
| 1787551018 | 10° C | 93% | 992.5 hPa | 0 mm | - | 41 W/m² | - |
| 1787550418 | 10.56° C | 92% | 992.5 hPa | 0 mm | - | 120 W/m² | - |
| 1787549819 | 11.11° C | 91% | 992.2 hPa | 0 mm | - | 290 W/m² | - |
| 1787549218 | 11.11° C | 90% | 992.1 hPa | 0 mm | - | 600 W/m² | - |
| 1787548617 | 11.67° C | 88% | 992.4 hPa | 0 mm | - | 1039 W/m² | - |
| 1787548017 | 12.22° C | 86% | 992.3 hPa | 0 mm | - | 1578 W/m² | - |
| 1787547418 | 12.78° C | 83% | 992.4 hPa | 0 mm | - | 1101 W/m² | - |
| 1787546818 | 13.33° C | 79% | 992.2 hPa | 0 mm | - | 1158 W/m² | - |
| 1787546218 | 13.89° C | 78% | 992.1 hPa | 0 mm | - | 1207 W/m² | - |
| 1787545618 | 13.89° C | 75% | 992.1 hPa | 0 mm | - | 1285 W/m² | - |
| 1787545017 | 13.89° C | 76% | 992 hPa | 0 mm | - | 1299 W/m² | - |
* Rain latest hour (hover to see other rain measurements)
** Current wind speed in m/s (hover to see current wind gust speed)